Torna al catalogo

SL-14 R/B

AttivoPO
NORAD 19852·ROCKET BODY·🇷🇺 Russia

Lanciato Feb 28, 1989 da Plesetsk Cosmodrome

Loading…

Prossimi Passaggi (prossime 24 ore)

TLE

AggiornatoSource: Space-Track

Epoca: Sep 14, 2026, 13:16 UTC

1 19852U 89018B   26257.55329929  .00000034  00000-0  17319-4 0  9999
2 19852  82.5200 122.1158 0016516 318.5960  41.3947 13.84174243896407

Traccia SL-14 R/B in tempo reale con AllMySat

Download on the App Store